GW6261 Weather Reports


time (UTC)temp
C
wind
direction
speed
KPH
gust
KPH
rain 1hr
cm
rain 24hr
cm
rain mn
cm
humidity
%
barometer
mb
20260504223057 25 142 6.4 17.7 0.00 0.00 0.00 67 1009.0
20260504222556 25 210 3.2 27.4 0.00 0.00 0.00 67 1009.0
20260504222056 25 133 16.1 25.7 0.00 0.00 0.00 66 1009.0
20260504221556 25 156 4.8 11.3 0.00 0.00 0.00 66 1009.0
20260504221057 25 150 6.4 14.5 0.00 0.00 0.00 66 1009.0
20260504220556 25 129 12.9 17.7 0.00 0.00 0.00 66 1009.0
20260504220056 25 123 14.5 19.3 0.00 0.00 0.00 66 1009.0
20260504215556 25 126 14.5 17.7 0.00 0.00 0.00 66 1009.0
20260504215056 25 121 11.3 27.4 0.00 0.00 0.00 65 1009.0
20260504214556 25 142 12.9 20.9 0.00 0.00 0.00 65 1010.0
20260504214057 25 130 12.9 24.1 0.00 0.00 0.00 65 1010.0
20260504213558 25 176 0.0 8.0 0.00 0.00 0.00 64 1010.0
20260504213056 25 147 9.7 24.1 0.00 0.00 0.00 64 1010.0
20260504212556 25 131 12.9 14.5 0.00 0.00 0.00 63 1010.0
20260504212057 25 105 12.9 22.5 0.00 0.00 0.00 63 1010.0
20260504211556 26 119 11.3 25.7 0.00 0.00 0.00 63 1010.0
20260504211056 26 91 3.2 8.0 0.00 0.00 0.00 62 1010.0
20260504210556 26 169 1.6 12.9 0.00 0.00 0.00 62 1010.0
20260504210056 26 153 4.8 20.9 0.00 0.00 0.00 62 1010.0
20260504205556 26 149 8.0 9.7 0.00 0.00 0.00 61 1010.0
20260504205057 26 144 12.9 24.1 0.00 0.00 0.00 61 1010.0
20260504204556 26 200 0.0 24.1 0.00 0.00 0.00 62 1010.0
20260504204056 26 135 8.0 12.9 0.00 0.00 0.00 61 1010.0
20260504203556 26 121 12.9 22.5 0.00 0.00 0.00 60 1010.0
20260504203056 26 161 6.4 22.5 0.00 0.00 0.00 60 1010.0
20260504202556 26 151 6.4 17.7 0.00 0.00 0.00 61 1010.0
20260504202056 26 98 14.5 17.7 0.00 0.00 0.00 60 1010.0
20260504201557 26 115 9.7 14.5 0.00 0.00 0.00 61 1010.0
20260504201058 26 119 27.4 30.6 0.00 0.00 0.00 60 1010.0
20260504200556 26 167 4.8 24.1 0.00 0.00 0.00 61 1010.0
20260504200056 26 162 8.0 24.1 0.00 0.00 0.00 60 1010.0
20260504195558 26 108 16.1 24.1 0.00 0.00 0.00 59 1011.0
20260504195056 26 126 16.1 24.1 0.00 0.00 0.00 58 1011.0
20260504194556 26 161 0.0 12.9 0.00 0.00 0.00 58 1010.0
20260504194057 27 223 3.2 12.9 0.00 0.00 0.00 57 1011.0
20260504193556 26 150 12.9 17.7 0.00 0.00 0.00 59 1011.0
20260504193057 26 135 12.9 17.7 0.00 0.00 0.00 58 1011.0
20260504192556 26 148 6.4 20.9 0.00 0.00 0.00 58 1011.0
20260504192056 26 151 6.4 16.1 0.00 0.00 0.00 58 1011.0
20260504191557 26 140 11.3 20.9 0.00 0.00 0.00 59 1011.0
20260504191056 26 117 8.0 16.1 0.00 0.00 0.00 58 1011.0
20260504190556 26 129 1.6 20.9 0.00 0.00 0.00 58 1011.0
20260504190057 26 142 8.0 11.3 0.00 0.00 0.00 58 1012.0
20260504185557 26 253 4.8 16.1 0.00 0.00 0.00 57 1012.0
20260504185056 26 145 6.4 9.7 0.00 0.00 0.00 56 1012.0
20260504184556 26 180 3.2 14.5 0.00 0.00 0.00 57 1012.0
20260504184056 26 222 4.8 8.0 0.00 0.00 0.00 56 1012.0
20260504183556 26 125 17.7 20.9 0.00 0.00 0.00 57 1011.0
20260504183057 26 130 11.3 24.1 0.00 0.00 0.00 57 1012.0
20260504182557 26 124 6.4 6.4 0.00 0.00 0.00 57 1012.0
20260504182056 27 127 24.1 27.4 0.00 0.00 0.00 54 1012.0
20260504181556 26 214 4.8 14.5 0.00 0.00 0.00 55 1012.0
20260504181057 26 115 11.3 17.7 0.00 0.00 0.00 55 1012.0
20260504180557 26 144 6.4 14.5 0.00 0.00 0.00 56 1012.0
20260504180056 26 146 11.3 14.5 0.00 0.00 0.00 55 1012.0
20260504175556 26 123 11.3 16.1 0.00 0.00 0.00 56 1012.0
20260504175057 26 164 3.2 20.9 0.00 0.00 0.00 56 1012.0
20260504174556 26 157 3.2 29.0 0.00 0.00 0.00 55 1012.0
20260504174056 27 121 11.3 27.4 0.00 0.00 0.00 52 1012.0
20260504173556 27 193 1.6 11.3 0.00 0.00 0.00 53 1012.0
20260504173057 26 189 8.0 8.0 0.00 0.00 0.00 52 1012.0
20260504172556 26 174 9.7 11.3 0.00 0.00 0.00 52 1013.0
20260504172057 26 142 4.8 14.5 0.00 0.00 0.00 53 1012.0
20260504171557 26 177 6.4 19.3 0.00 0.00 0.00 54 1013.0
20260504171106 26 151 8.0 9.7 0.00 0.00 0.00 53 1013.0
20260504170556 26 159 4.8 16.1 0.00 0.00 0.00 55 1013.0
20260504151057 24 155 3.2 8.0 0.00 0.00 0.00 64 1014.0
20260504150557 24 143 16.1 22.5 0.00 0.00 0.00 63 1013.0
20260504141057 22 79 1.6 4.8 0.00 0.00 0.00 66 1013.0
20260504140600 22 112 4.8 9.7 0.00 0.00 0.00 66 1013.0
20260504130557 18 106 4.8 8.0 0.00 0.00 0.00 74 1013.0
20260504110558 13 65 1.6 3.2 0.00 0.00 0.00 89 1013.0
20260504100556 13 74 1.6 4.8 0.00 0.00 0.00 89 1013.0
20260504081556 14 36 1.6 3.2 0.00 0.00 0.00 85 1014.0
20260504081057 14 58 3.2 4.8 0.00 0.00 0.00 85 1014.0
20260504080556 14 85 3.2 4.8 0.00 0.00 0.00 85 1014.0
20260504050558 16 109 3.2 8.0 0.00 0.00 0.00 73 1016.0
20260504045556 16 156 4.8 6.4 0.00 0.00 0.00 73 1016.0
20260504045056 16 53 4.8 8.0 0.00 0.00 0.00 72 1016.0
20260504044556 16 86 4.8 8.0 0.00 0.00 0.00 71 1016.0
20260504044056 16 87 1.6 6.4 0.00 0.00 0.00 72 1016.0
20260504043556 16 120 3.2 6.4 0.00 0.00 0.00 71 1016.0
20260504043056 16 302 1.6 6.4 0.00 0.00 0.00 71 1016.0
20260504042557 17 79 1.6 3.2 0.00 0.00 0.00 70 1016.0
20260504042056 17 22 0.0 1.6 0.00 0.00 0.00 69 1016.0
20260504041556 17 89 0.0 0.0 0.00 0.00 0.00 68 1016.0
20260504041056 17 44 0.0 1.6 0.00 0.00 0.00 67 1016.0
20260504040556 17 102 1.6 1.6 0.00 0.00 0.00 66 1016.0
20260504040056 17 101 1.6 3.2 0.00 0.00 0.00 65 1016.0
20260504035556 17 102 3.2 3.2 0.00 0.00 0.00 65 1016.0
20260504035056 17 111 1.6 6.4 0.00 0.00 0.00 64 1016.0
20260504034556 18 103 1.6 3.2 0.00 0.00 0.00 64 1016.0
20260504034056 18 111 1.6 3.2 0.00 0.00 0.00 64 1016.0
20260504033556 18 106 3.2 4.8 0.00 0.00 0.00 64 1016.0
20260504033056 18 85 1.6 3.2 0.00 0.00 0.00 63 1016.0
20260504032557 18 91 1.6 3.2 0.00 0.00 0.00 63 1016.0
20260504032057 18 98 1.6 4.8 0.00 0.00 0.00 62 1016.0
20260504031556 18 133 3.2 4.8 0.00 0.00 0.00 62 1016.0
20260504031057 18 97 1.6 3.2 0.00 0.00 0.00 61 1016.0
20260504030557 19 81 0.0 4.8 0.00 0.00 0.00 61 1016.0
20260504030056 19 96 4.8 6.4 0.00 0.00 0.00 60 1016.0
20260504025556 19 117 4.8 4.8 0.00 0.00 0.00 60 1016.0
20260504025056 19 60 0.0 3.2 0.00 0.00 0.00 59 1016.0
20260504024557 20 111 1.6 4.8 0.00 0.00 0.00 59 1016.0
20260504024057 20 106 3.2 8.0 0.00 0.00 0.00 58 1016.0
20260504023558 20 118 4.8 6.4 0.00 0.00 0.00 59 1016.0
20260504023056 20 98 0.0 3.2 0.00 0.00 0.00 58 1016.0
20260504022557 20 106 1.6 9.7 0.00 0.00 0.00 58 1016.0
20260504022056 20 124 8.0 8.0 0.00 0.00 0.00 57 1016.0
20260504021556 20 123 8.0 8.0 0.00 0.00 0.00 57 1016.0
20260504021057 20 129 4.8 9.7 0.00 0.00 0.00 56 1016.0
20260504020557 20 179 3.2 8.0 0.00 0.00 0.00 56 1016.0
20260504020056 20 131 8.0 11.3 0.00 0.00 0.00 56 1016.0
20260504015557 20 115 3.2 8.0 0.00 0.00 0.00 55 1016.0
20260504015056 20 130 8.0 9.7 0.00 0.00 0.00 55 1016.0
20260504014556 20 126 8.0 8.0 0.00 0.00 0.00 55 1016.0
20260504014056 21 136 4.8 6.4 0.00 0.00 0.00 55 1016.0
20260504013556 21 131 6.4 9.7 0.00 0.00 0.00 54 1016.0
20260504013056 21 125 8.0 8.0 0.00 0.00 0.00 53 1016.0
20260504012556 21 164 0.0 6.4 0.00 0.00 0.00 53 1016.0
20260504012057 21 143 3.2 9.7 0.00 0.00 0.00 52 1016.0
20260504011556 21 127 3.2 9.7 0.00 0.00 0.00 52 1016.0
20260504011057 21 140 4.8 12.9 0.00 0.00 0.00 51 1016.0
20260504010556 21 145 4.8 12.9 0.00 0.00 0.00 50 1016.0
20260504010057 22 143 1.6 12.9 0.00 0.00 0.00 50 1016.0
20260504005556 22 138 4.8 11.3 0.00 0.00 0.00 48 1016.0
20260504005056 22 144 3.2 9.7 0.00 0.00 0.00 48 1015.0
20260504004556 22 131 6.4 11.3 0.00 0.00 0.00 47 1016.0
20260504004056 22 123 8.0 9.7 0.00 0.00 0.00 47 1015.0
20260504003556 22 130 4.8 9.7 0.00 0.00 0.00 46 1016.0
20260504003058 22 107 3.2 8.0 0.00 0.00 0.00 45 1015.0
20260504002556 23 131 3.2 8.0 0.00 0.00 0.00 45 1016.0
20260504002056 23 169 3.2 16.1 0.00 0.00 0.00 45 1015.0
20260504001556 23 138 3.2 9.7 0.00 0.00 0.00 44 1016.0
20260504001102 23 111 8.0 17.7 0.00 0.00 0.00 44 1016.0
20260504000556 23 195 4.8 8.0 0.00 0.00 0.00 43 1016.0
20260504000056 23 137 9.7 14.5 0.00 0.00 0.00 43 1016.0
20260503235556 23 195 4.8 12.9 0.00 0.00 0.00 42 1016.0
20260503235057 24 131 8.0 16.1 0.00 0.00 0.00 42 1016.0
20260503234556 24 162 4.8 14.5 0.00 0.00 0.00 43 1016.0
20260503234057 24 140 3.2 11.3 0.00 0.00 0.00 42 1016.0
20260503233556 25 171 4.8 17.7 0.00 0.00 0.00 41 1016.0
20260503233057 25 155 1.6 8.0 0.00 0.00 0.00 41 1016.0
20260503232556 25 164 3.2 9.7 0.00 0.00 0.00 41 1016.0
20260503232056 25 140 6.4 8.0 0.00 0.00 0.00 41 1016.0
20260503231557 25 234 1.6 4.8 0.00 0.00 0.00 41 1016.0
20260503231056 25 143 9.7 11.3 0.00 0.00 0.00 40 1016.0
20260503230556 25 164 0.0 9.7 0.00 0.00 0.00 40 1016.0
20260503230056 25 142 11.3 19.3 0.00 0.00 0.00 39 1016.0
20260503225556 25 99 4.8 8.0 0.00 0.00 0.00 39 1016.0
20260503225056 25 135 16.1 17.7 0.00 0.00 0.00 38 1016.0
20260503224556 25 163 3.2 16.1 0.00 0.00 0.00 40 1016.0
20260503224056 25 118 4.8 9.7 0.00 0.00 0.00 40 1016.0
20260503223556 25 122 11.3 16.1 0.00 0.00 0.00 39 1016.0